Gunnison, CO

6:27 AM MDT on August 25, 2016 (GMT -0600)
Gunnison County

Weather History for KGUC - October, 2013

Change the Weather History Date:

Saturday, October 12, 2013

  Actual Average Record
Temperature  
Mean Temperature 38 °F -  
Max Temperature 51 °F 59 °F 73 °F (2015)
Min Temperature 26 °F 22 °F 19 °F (1999)
Degree Days  
Heating Degree Days 26    
Moisture  
Dew Point 25 °F    
Average Humidity 62    
Maximum Humidity 86    
Minimum Humidity 30    
Precipitation  
Precipitation 0.00 in - - ()
Sea Level Pressure  
Sea Level Pressure 30.23 in    
Wind  
Wind Speed 2 mph (SE)    
Max Wind Speed 10 mph    
Max Gust Speed -    
Visibility 10 miles    
Events      
Averages and records for this station are not official NWS values.
T = Trace of Precipitation, MM = Missing Value Source: NWS Daily Summary

Daily Weather History Graph

Daily Weather History Graph

Search for Another Location

Airport or City:

Trip Planner

Search our weather history database for the weather conditions in past years. The results will help you decide how hot, cold, wet, or windy it might be!

Date:

Astronomy

Oct. 12, 2013 Rise Set
Actual Time 7:14 AM MDT 6:33 PM MDT
Civil Twilight 6:47 AM MDT 7:00 PM MDT
Nautical Twilight 6:16 AM MDT 7:30 PM MDT
Astronomical Twilight 5:46 AM MDT 8:01 PM MDT
Moon 2:41 PM MDT (10/12) 12:25 AM MDT (10/12)
Length of Visible Light 12h 12m
Length of Day
11h 19m
First Quarter, 59% of the Moon is Illuminated
Oct 12
First Quarter
Oct 18
Full
Oct 26
Last Quarter
Nov 3
New
Nov 9
First Quarter

Hourly Weather History & Observations

Time (MDT) Temp. Windchill Dew Point Humidity Pressure Visibility Wind Dir Wind Speed Gust Speed Precip Events Conditions
12:15 AM 32.0 °F - 24.8 °F 75% 30.22 in 10.0 mi Calm Calm - N/A   Clear
12:35 AM 32.0 °F 28.7 °F 24.8 °F 75% 30.22 in 10.0 mi North 3.5 mph - N/A   Clear
12:55 AM 30.2 °F - 24.8 °F 80% 30.22 in 10.0 mi Calm Calm - N/A   Clear
1:15 AM 30.2 °F - 24.8 °F 80% 30.22 in 10.0 mi Calm Calm - N/A   Clear
1:35 AM 30.2 °F - 24.8 °F 80% 30.23 in 10.0 mi Calm Calm - N/A   Clear
1:55 AM 30.2 °F 25.4 °F 24.8 °F 80% 30.23 in 10.0 mi North 4.6 mph - N/A   Scattered Clouds
2:15 AM 30.2 °F - 24.8 °F 80% 30.23 in 10.0 mi Calm Calm - N/A   Scattered Clouds
2:35 AM 28.4 °F - 24.8 °F 86% 30.23 in 10.0 mi Calm Calm - N/A   Partly Cloudy
2:55 AM 28.4 °F - 23.0 °F 80% 30.23 in 10.0 mi Calm Calm - N/A   Partly Cloudy
3:15 AM 28.4 °F - 24.8 °F 86% 30.23 in 10.0 mi Calm Calm - N/A   Partly Cloudy
3:35 AM 28.4 °F - 24.8 °F 86% 30.23 in 10.0 mi Calm Calm - N/A   Scattered Clouds
3:55 AM 26.6 °F - 21.2 °F 80% 30.23 in 10.0 mi Calm Calm - N/A   Mostly Cloudy
4:15 AM 28.4 °F - 24.8 °F 86% 30.23 in 10.0 mi Calm Calm - N/A   Mostly Cloudy
4:35 AM 28.4 °F - 24.8 °F 86% 30.23 in 10.0 mi Calm Calm - N/A   Overcast
4:55 AM 28.4 °F - 24.8 °F 86% 30.24 in 10.0 mi Calm Calm - N/A   Overcast
5:15 AM 30.2 °F - 24.8 °F 80% 30.24 in 10.0 mi Calm Calm - N/A   Overcast
5:35 AM 30.2 °F - 24.8 °F 80% 30.24 in 10.0 mi Calm Calm - N/A   Overcast
5:55 AM 30.2 °F - 26.6 °F 86% 30.25 in 10.0 mi Calm Calm - N/A   Overcast
6:15 AM 30.2 °F - 26.6 °F 86% 30.25 in 10.0 mi Calm Calm - N/A   Overcast
6:35 AM 30.2 °F - 26.6 °F 86% 30.25 in 10.0 mi Calm Calm - N/A   Overcast
6:55 AM 30.2 °F - 26.6 °F 86% 30.25 in 10.0 mi Calm Calm - N/A   Overcast
7:15 AM 30.2 °F - 26.6 °F 86% 30.26 in 10.0 mi Calm Calm - N/A   Overcast
7:35 AM 30.2 °F 26.7 °F 26.6 °F 86% 30.27 in 10.0 mi SSE 3.5 mph - N/A   Overcast
7:55 AM 30.2 °F - 26.6 °F 86% 30.28 in 10.0 mi Calm Calm - N/A   Mostly Cloudy
8:15 AM 30.2 °F - 26.6 °F 86% 30.29 in 10.0 mi Calm Calm - N/A   Scattered Clouds
8:35 AM 32.0 °F - 26.6 °F 80% 30.29 in 10.0 mi Calm Calm - N/A   Mostly Cloudy
8:55 AM 33.8 °F - 28.4 °F 81% 30.29 in 10.0 mi Calm Calm - N/A   Overcast
9:15 AM 33.8 °F - 28.4 °F 81% 30.29 in 10.0 mi Calm Calm - N/A   Overcast
9:35 AM 35.6 °F - 28.4 °F 75% 30.29 in 10.0 mi Calm Calm - N/A   Mostly Cloudy
9:55 AM 35.6 °F - 28.4 °F 75% 30.29 in 10.0 mi Calm Calm - N/A   Partly Cloudy
10:15 AM 37.4 °F - 28.4 °F 70% 30.29 in 10.0 mi Calm Calm - N/A   Clear
10:35 AM 39.2 °F - 28.4 °F 65% 30.29 in 10.0 mi Calm Calm - N/A   Clear
10:55 AM 41.0 °F 38.0 °F 26.6 °F 57% 30.29 in 10.0 mi SE 4.6 mph - N/A   Clear
11:15 AM 42.8 °F - 26.6 °F 53% 30.29 in 10.0 mi Calm Calm - N/A   Clear
11:35 AM 42.8 °F 38.6 °F 26.6 °F 53% 30.28 in 10.0 mi South 6.9 mph - N/A   Clear
11:55 AM 42.8 °F 41.1 °F 26.6 °F 53% 30.27 in 10.0 mi WSW 3.5 mph - N/A   Clear
12:15 PM 44.6 °F 43.1 °F 24.8 °F 46% 30.26 in 10.0 mi SE 3.5 mph - N/A   Clear
12:35 PM 44.6 °F 42.2 °F 24.8 °F 46% 30.26 in 10.0 mi South 4.6 mph - N/A   Clear
12:55 PM 46.4 °F 44.3 °F 24.8 °F 43% 30.24 in 10.0 mi SSE 4.6 mph - N/A   Clear
1:15 PM 46.4 °F - 24.8 °F 43% 30.23 in 10.0 mi Calm Calm - N/A   Clear
1:35 PM 46.4 °F 45.2 °F 23.0 °F 40% 30.21 in 10.0 mi SSE 3.5 mph - N/A   Clear
1:55 PM 48.2 °F - 24.8 °F 40% 30.20 in 10.0 mi SW 6.9 mph - N/A   Clear
2:15 PM 48.2 °F - 23.0 °F 37% 30.20 in 10.0 mi SE 4.6 mph - N/A   Clear
2:35 PM 50.0 °F - 24.8 °F 37% 30.19 in 10.0 mi ESE 4.6 mph - N/A   Clear
2:55 PM 50.0 °F - 23.0 °F 35% 30.18 in 10.0 mi SE 4.6 mph - N/A   Clear
3:15 PM 50.0 °F - 23.0 °F 35% 30.18 in 10.0 mi SSE 3.5 mph - N/A   Clear
3:35 PM 51.8 °F - 23.0 °F 33% 30.17 in 10.0 mi SSW 6.9 mph - N/A   Clear
3:55 PM 51.8 °F - 23.0 °F 33% 30.17 in 10.0 mi SE 4.6 mph - N/A   Clear
4:15 PM 51.8 °F - 24.8 °F 35% 30.16 in 10.0 mi SE 4.6 mph - N/A   Clear
4:35 PM 51.8 °F - 21.2 °F 30% 30.16 in 10.0 mi SSW 3.5 mph - N/A   Clear
4:55 PM 51.8 °F - 21.2 °F 30% 30.16 in 10.0 mi SW 4.6 mph - N/A   Clear
5:15 PM 51.8 °F - 21.2 °F 30% 30.16 in 10.0 mi South 5.8 mph - N/A   Clear
5:35 PM 51.8 °F - 23.0 °F 33% 30.16 in 10.0 mi South 4.6 mph - N/A   Clear
5:55 PM 51.8 °F - 23.0 °F 33% 30.17 in 10.0 mi SSE 4.6 mph - N/A   Clear
6:15 PM 51.8 °F - 23.0 °F 33% 30.17 in 10.0 mi South 4.6 mph - N/A   Clear
6:35 PM 48.2 °F - 24.8 °F 40% 30.17 in 10.0 mi SSE 4.6 mph - N/A   Clear
6:55 PM 46.4 °F 44.3 °F 24.8 °F 43% 30.18 in 10.0 mi South 4.6 mph - N/A   Clear
7:15 PM 44.6 °F 43.1 °F 26.6 °F 49% 30.18 in 10.0 mi North 3.5 mph - N/A   Clear
7:35 PM 42.8 °F 39.3 °F 21.2 °F 42% 30.19 in 10.0 mi NW 5.8 mph - N/A   Clear
7:55 PM 42.8 °F 38.6 °F 21.2 °F 42% 30.20 in 10.0 mi NNW 6.9 mph - N/A   Clear
8:15 PM 41.0 °F 37.1 °F 21.2 °F 45% 30.20 in 10.0 mi North 5.8 mph - N/A   Clear
8:35 PM 39.2 °F 33.6 °F 23.0 °F 52% 30.21 in 10.0 mi North 8.1 mph - N/A   Clear
8:55 PM 37.4 °F 33.8 °F 23.0 °F 56% 30.22 in 10.0 mi NW 4.6 mph - N/A   Clear
9:15 PM 37.4 °F 32.8 °F 24.8 °F 60% 30.22 in 10.0 mi North 5.8 mph - N/A   Clear
9:35 PM 37.4 °F 32.8 °F 23.0 °F 56% 30.23 in 10.0 mi North 5.8 mph - N/A   Clear
9:55 PM 35.6 °F 29.2 °F 24.8 °F 65% 30.23 in 10.0 mi North 8.1 mph - N/A   Clear
10:15 PM 35.6 °F 28.0 °F 23.0 °F 60% 30.24 in 10.0 mi North 10.4 mph - N/A   Clear
10:35 PM 33.8 °F 26.4 °F 23.0 °F 65% 30.25 in 10.0 mi North 9.2 mph - N/A   Clear
10:55 PM 33.8 °F 27.7 °F 23.0 °F 65% 30.25 in 10.0 mi NNE 6.9 mph - N/A   Clear
11:15 PM 33.8 °F 27.0 °F 21.2 °F 60% 30.25 in 10.0 mi North 8.1 mph - N/A   Clear
11:35 PM 32.0 °F 25.6 °F 23.0 °F 69% 30.25 in 10.0 mi North 6.9 mph - N/A   Clear
11:55 PM 32.0 °F 24.8 °F 21.2 °F 64% 30.26 in 10.0 mi North 8.1 mph - N/A   Clear